#timestamp,LO_Frequency,Hit,Temp,Hum 
1480089615.9,286047013.7,N,0.0,0.0
1480089635.7,286047011.1,N,0.0,0.0
1480089655.6,286047011.2,N,0.0,0.0
1480089675.4,286047013.4,N,0.0,0.0
1480089695.2,286047011.8,N,0.0,0.0
1480089715.1,286047011.6,N,0.0,0.0
1480089716.0,286047011.6,N,0.0,0.0
1480089735.8,286047012.2,N,0.0,0.0
1480089755.7,286047010.2,N,0.0,0.0
1480089775.5,286047008.4,N,0.0,0.0
1480089795.3,286047008.0,N,0.0,0.0
1480089815.2,286047006.2,N,0.0,0.0
1480089835.0,286047006.9,N,0.0,0.0
1480089835.9,286047006.9,N,0.0,0.0
1480089855.8,286047006.8,N,0.0,0.0
1480089875.6,286047004.7,N,0.0,0.0
1480089895.4,286047005.6,N,0.0,0.0
1480089915.3,286047002.9,N,0.0,0.0
1480089935.1,286047003.9,N,0.0,0.0
1480089955.8,286047003.9,N,0.0,0.0
1480089975.7,286047001.9,N,0.0,0.0
1480089995.5,286047000.1,N,0.0,0.0
1480090015.4,286047000.9,N,0.0,0.0
1480090035.2,286047000.7,N,0.0,0.0
1480090055.0,286047000.5,N,0.0,0.0
1480090055.9,286047000.5,N,0.0,0.0
1480090075.8,286047001.0,N,0.0,0.0
1480090095.6,286047001.2,N,0.0,0.0
1480090115.4,286046999.0,N,0.0,0.0
1480090135.3,286046999.2,N,0.0,0.0
1480090155.1,286046997.0,N,0.0,0.0
1480090175.9,286046997.9,N,0.0,0.0
1480090195.7,286046994.9,N,0.0,0.0
1480090215.5,286046994.9,N,0.0,0.0
1480090235.4,286046995.5,N,0.0,0.0
1480090255.2,286046996.0,N,0.0,0.0
1480090275.0,286046994.6,N,0.0,0.0
1480090276.0,286046994.6,N,0.0,0.0
1480090295.8,286046992.1,N,0.0,0.0
1480090315.6,286046992.3,N,0.0,0.0
1480090335.5,286046992.4,N,0.0,0.0
1480090355.3,286046993.2,N,0.0,0.0
1480090375.1,286046993.2,N,0.0,0.0
1480090395.9,286046990.2,N,0.0,0.0
1480090415.7,286046990.9,N,0.0,0.0
1480090435.5,286046988.5,N,0.0,0.0
1480090455.4,286046990.8,N,0.0,0.0
1480090475.2,286046991.2,N,0.0,0.0
1480090495.1,286046990.8,N,0.0,0.0
1480090496.0,286046990.8,N,0.0,0.0
1480090515.8,286046990.2,N,0.0,0.0
1480090535.6,286046991.2,N,0.0,0.0
1480090555.5,286046988.6,N,0.0,0.0
1480090575.3,286046989.6,N,0.0,0.0
1480090595.2,286046987.0,N,0.0,0.0
1480090615.9,286046989.9,N,0.0,0.0
1480090635.7,286046987.7,N,0.0,0.0
1480090655.6,286046987.9,N,0.0,0.0
1480090675.4,286046988.1,N,0.0,0.0
1480090695.2,286046988.1,N,0.0,0.0
1480090715.1,286046987.5,N,0.0,0.0
1480090716.0,286046987.5,N,0.0,0.0
1480090735.8,286046987.8,N,0.0,0.0
1480090755.7,286046988.3,N,0.0,0.0
1480090775.5,286046985.8,N,0.0,0.0
1480090795.3,286046986.9,N,0.0,0.0
1480090815.2,286046987.3,N,0.0,0.0
1480090835.0,286046988.1,N,0.0,0.0
1480090835.9,286046988.1,N,0.0,0.0
1480090855.8,286046988.3,N,0.0,0.0
1480090875.6,286046985.5,N,0.0,0.0
1480090895.4,286046986.5,N,0.0,0.0
1480090915.3,286046986.8,N,0.0,0.0
1480090935.1,286046984.3,N,0.0,0.0
1480090955.8,286046984.6,N,0.0,0.0
1480090975.7,286046985.0,N,0.0,0.0
1480090995.5,286046982.2,N,0.0,0.0
1480091015.4,286046985.2,N,0.0,0.0
1480091035.2,286046985.1,N,0.0,0.0
1480091055.0,286046984.7,N,0.0,0.0
1480091055.9,286046984.7,N,0.0,0.0
1480091075.8,286046984.8,N,0.0,0.0
1480091095.6,286046984.5,N,0.0,0.0
1480091115.4,286046982.1,N,0.0,0.0
1480091135.3,286046985.0,N,0.0,0.0
1480091155.1,286046982.2,N,0.0,0.0
1480091175.9,286046985.1,N,0.0,0.0
1480091195.7,286046984.9,N,0.0,0.0
1480091215.5,286046984.6,N,0.0,0.0
1480091235.4,286046985.0,N,0.0,0.0
1480091255.2,286046982.3,N,0.0,0.0
1480091275.1,286046983.1,N,0.0,0.0
1480091276.0,286046983.1,N,0.0,0.0
1480091295.8,286046983.0,N,0.0,0.0
1480091315.6,286046983.2,N,0.0,0.0
1480091335.5,286046981.0,N,0.0,0.0
1480091355.3,286046980.7,N,0.0,0.0
1480091375.1,286046981.1,N,0.0,0.0
1480091395.9,286046981.2,N,0.0,0.0
1480091415.7,286046980.8,N,0.0,0.0
1480091435.6,286046980.6,N,0.0,0.0
1480091455.4,286046983.5,N,0.0,0.0
1480091475.2,286046983.6,N,0.0,0.0
1480091495.1,286046981.0,N,0.0,0.0
1480091496.0,286046981.0,N,0.0,0.0
1480091515.8,286046980.7,N,0.0,0.0
1480091535.7,286046980.8,N,0.0,0.0
1480091555.5,286046981.6,N,0.0,0.0
1480091575.3,286046978.9,N,0.0,0.0
1480091595.2,286046979.3,N,0.0,0.0
1480091615.0,286046979.4,N,0.0,0.0
1480091615.9,286046979.4,N,0.0,0.0
1480091635.7,286046979.1,N,0.0,0.0
1480091655.6,286046979.2,N,0.0,0.0
1480091675.4,286046979.7,N,0.0,0.0
1480091695.3,286046979.4,N,0.0,0.0
1480091715.1,286046979.4,N,0.0,0.0
1480091735.8,286046981.1,N,0.0,0.0
1480091755.7,286046981.3,N,0.0,0.0
1480091775.5,286046981.6,N,0.0,0.0
1480091795.4,286046978.9,N,0.0,0.0
1480091815.2,286046978.9,N,0.0,0.0
1480091835.0,286046981.4,N,0.0,0.0
1480091835.9,286046981.4,N,0.0,0.0
1480091855.8,286046980.7,N,0.0,0.0
1480091875.6,286046980.9,N,0.0,0.0
1480091895.4,286046981.4,N,0.0,0.0
1480091915.3,286046981.1,N,0.0,0.0
1480091935.1,286046980.8,N,0.0,0.0
1480091955.9,286046980.8,N,0.0,0.0
1480091975.7,286046980.6,N,0.0,0.0
1480091995.5,286046983.6,N,0.0,0.0
1480092015.4,286046983.2,N,0.0,0.0
1480092035.2,286046983.5,N,0.0,0.0
1480092055.0,286046983.3,N,0.0,0.0
1480092056.0,286046983.3,N,0.0,0.0
1480092075.8,286046983.3,N,0.0,0.0
1480092095.6,286046982.7,N,0.0,0.0
1480092115.5,286046982.6,N,0.0,0.0
1480092135.3,286046982.5,N,0.0,0.0
1480092155.1,286046982.6,N,0.0,0.0
1480092175.9,286046985.1,N,0.0,0.0
1480092195.7,286046984.6,N,0.0,0.0
1480092215.6,286046984.1,N,0.0,0.0
1480092235.4,286046986.5,N,0.0,0.0
1480092255.2,286046985.9,N,0.0,0.0
1480092275.1,286046986.1,N,0.0,0.0
1480092276.0,286046986.1,N,0.0,0.0
1480092295.8,286046985.6,N,0.0,0.0
1480092315.6,286046985.9,N,0.0,0.0
1480092335.5,286046985.3,N,0.0,0.0
1480092355.3,286046987.5,N,0.0,0.0
1480092375.2,286046987.1,N,0.0,0.0
1480092395.9,286046987.2,N,0.0,0.0
1480092415.7,286046987.4,N,0.0,0.0
1480092435.6,286046989.9,N,0.0,0.0
1480092455.4,286046989.6,N,0.0,0.0
1480092475.3,286046989.5,N,0.0,0.0
1480092495.1,286046988.8,N,0.0,0.0
1480092496.0,286046988.8,N,0.0,0.0
1480092515.8,286046988.8,N,0.0,0.0
1480092535.7,286046988.8,N,0.0,0.0
1480092555.5,286046988.9,N,0.0,0.0
1480092575.3,286046988.8,N,0.0,0.0
1480092595.2,286046991.4,N,0.0,0.0
1480092615.0,286046990.7,N,0.0,0.0
1480092615.9,286046990.7,N,0.0,0.0
1480092635.8,286046990.3,N,0.0,0.0
1480092655.6,286046990.6,N,0.0,0.0
1480092675.4,286046990.9,N,0.0,0.0
1480092695.3,286046990.3,N,0.0,0.0
1480092715.1,286046993.1,N,0.0,0.0
1480092735.9,286046990.2,N,0.0,0.0
1480092755.7,286046990.2,N,0.0,0.0
1480092775.5,286046990.6,N,0.0,0.0
1480092795.4,286046993.2,N,0.0,0.0
1480092815.2,286046993.2,N,0.0,0.0
1480092835.0,286046992.9,N,0.0,0.0
1480092835.9,286046992.9,N,0.0,0.0
1480092855.8,286046992.4,N,0.0,0.0
1480092875.6,286046991.8,N,0.0,0.0
1480092895.5,286046994.7,N,0.0,0.0
1480092915.3,286046991.7,N,0.0,0.0
1480092935.1,286046994.6,N,0.0,0.0
1480092955.9,286046994.0,N,0.0,0.0
1480092975.7,286046993.9,N,0.0,0.0
1480092995.5,286046993.5,N,0.0,0.0
1480093015.4,286046993.9,N,0.0,0.0
1480093035.2,286046993.5,N,0.0,0.0
1480093055.1,286046994.0,N,0.0,0.0
1480093056.0,286046994.0,N,0.0,0.0
1480093075.8,286046994.0,N,0.0,0.0
1480093095.6,286046993.6,N,0.0,0.0
1480093115.5,286046993.6,N,0.0,0.0
1480093135.3,286046994.2,N,0.0,0.0
1480093155.2,286046994.0,N,0.0,0.0
1480093175.9,286046993.9,N,0.0,0.0
1480093195.7,286046995.9,N,0.0,0.0
